• In Österreich
  • Länderverzeichnis
  • Für 7 Tage
  • Wassertemperatur
  • Satellitenkarten
  • Wetterkarte
  • News
  • Widgets
  • user-avatar
    Anmelden

    Stündliche Wetter Artaschat

    Heute, 22 Mai, Dienstag

    Zeit Temperatur Niederschläge Wind Luftdruck Luftfeuchtigkeit
    00:00 +11°C° 0,1 mm 0 m/S 604 mmHg 66%
    01:00 +12°C° 0 mm 1 m/S 604 mmHg 67%
    02:00 +11°C° 0 mm 1 m/S 603 mmHg 69%
    03:00 +11°C° 0 mm 1 m/S 603 mmHg 70%
    04:00 +11°C° 0 mm 1 m/S 603 mmHg 68%
    05:00 +12°C° 0 mm 1 m/S 604 mmHg 67%
    06:00 +12°C° 0 mm 1 m/S 604 mmHg 65%
    07:00 +14°C° 0 mm 1 m/S 605 mmHg 59%
    08:00 +15°C° 0 mm 2 m/S 606 mmHg 53%
    09:00 +16°C° 0 mm 2 m/S 606 mmHg 48%
    10:00 +17°C° 0,2 mm 3 m/S 606 mmHg 44%
    11:00 +18°C° 0,2 mm 3 m/S 607 mmHg 41%
    12:00 +20°C° 0,2 mm 3 m/S 607 mmHg 37%
    13:00 +20°C° 0,3 mm 3 m/S 607 mmHg 36%
    14:00 +20°C° 0,3 mm 3 m/S 607 mmHg 35%
    15:00 +20°C° 0 mm 3 m/S 607 mmHg 35%
    16:00 +19°C° 0,4 mm 3 m/S 607 mmHg 39%
    17:00 +18°C° 0,4 mm 2 m/S 607 mmHg 43%
    18:00 +19°C° 0,4 mm 1 m/S 607 mmHg 46%
    19:00 +16°C° 0,5 mm 1 m/S 607 mmHg 52%
    20:00 +15°C° 0,5 mm 1 m/S 606 mmHg 58%
    21:00 +14°C° 0,5 mm 1 m/S 606 mmHg 64%
    22:00 +13°C° 0,4 mm 1 m/S 606 mmHg 67%
    23:00 +12°C° 0,4 mm 1 m/S 606 mmHg 70%

    Morgen, 23 Mai, Mittwoch

    Zeit Temperatur Niederschläge Wind Luftdruck Luftfeuchtigkeit
    00:00 +12°C° 0,4 mm 1 m/S 605 mmHg 73%
    01:00 +11°C° 0,1 mm 1 m/S 605 mmHg 74%
    02:00 +11°C° 0,1 mm 1 m/S 605 mmHg 75%
    03:00 +11°C° 0,1 mm 1 m/S 605 mmHg 76%
    04:00 +11°C° 0 mm 1 m/S 605 mmHg 74%
    05:00 +12°C° 0 mm 1 m/S 606 mmHg 72%
    06:00 +12°C° 0 mm 1 m/S 606 mmHg 70%
    07:00 +13°C° 0 mm 2 m/S 606 mmHg 64%
    08:00 +15°C° 0 mm 2 m/S 607 mmHg 59%
    09:00 +16°C° 0 mm 2 m/S 607 mmHg 53%
    10:00 +17°C° 0,1 mm 3 m/S 607 mmHg 49%
    11:00 +18°C° 0,1 mm 3 m/S 607 mmHg 45%
    12:00 +19°C° 0,1 mm 4 m/S 608 mmHg 42%
    13:00 +20°C° 0,3 mm 4 m/S 608 mmHg 40%
    14:00 +20°C° 0,3 mm 5 m/S 608 mmHg 37%
    15:00 +21°C° 0,3 mm 5 m/S 608 mmHg 35%
    16:00 +20°C° 0,2 mm 5 m/S 607 mmHg 37%
    17:00 +19°C° 0,2 mm 4 m/S 607 mmHg 39%
    18:00 +19°C° 0,2 mm 4 m/S 607 mmHg 41%
    19:00 +17°C° 0,1 mm 3 m/S 606 mmHg 44%
    20:00 +16°C° 0,1 mm 3 m/S 606 mmHg 48%
    21:00 +14°C° 0,1 mm 2 m/S 606 mmHg 51%
    22:00 +14°C° 0 mm 2 m/S 605 mmHg 53%
    23:00 +13°C° 0 mm 2 m/S 605 mmHg 55%

    übermorgen, 24 Mai, Donnerstag

    Zeit Temperatur Niederschläge Wind Luftdruck Luftfeuchtigkeit
    00:00 +12°C° 0 mm 2 m/S 605 mmHg 56%
    01:00 +12°C° 0 mm 1 m/S 605 mmHg 58%
    02:00 +11°C° 0 mm 1 m/S 604 mmHg 59%
    03:00 +11°C° 0 mm 1 m/S 604 mmHg 61%
    04:00 +11°C° 0 mm 1 m/S 604 mmHg 59%
    05:00 +12°C° 0 mm 1 m/S 604 mmHg 58%
    06:00 +12°C° 0 mm 1 m/S 604 mmHg 57%
    07:00 +14°C° 0 mm 2 m/S 604 mmHg 52%
    08:00 +15°C° 0 mm 2 m/S 605 mmHg 46%
    09:00 +16°C° 0 mm 2 m/S 605 mmHg 41%
    10:00 +17°C° 0 mm 2 m/S 605 mmHg 38%
    11:00 +18°C° 0 mm 3 m/S 605 mmHg 35%
    12:00 +19°C° 0 mm 3 m/S 605 mmHg 32%
    13:00 +20°C° 0 mm 3 m/S 605 mmHg 31%
    14:00 +20°C° 0 mm 3 m/S 605 mmHg 30%
    15:00 +20°C° 0 mm 4 m/S 605 mmHg 29%
    16:00 +20°C° 0,1 mm 3 m/S 605 mmHg 31%
    17:00 +20°C° 0,1 mm 3 m/S 604 mmHg 33%
    18:00 +19°C° 0,1 mm 3 m/S 604 mmHg 35%
    19:00 +17°C° 0 mm 3 m/S 604 mmHg 39%
    20:00 +16°C° 0 mm 2 m/S 603 mmHg 43%
    21:00 +14°C° 0 mm 2 m/S 603 mmHg 46%
    22:00 +14°C° 0 mm 2 m/S 603 mmHg 49%
    23:00 +13°C° 0 mm 2 m/S 602 mmHg 52%

    25 Mai, Freitag

    Zeit Temperatur Niederschläge Wind Luftdruck Luftfeuchtigkeit
    00:00 +12°C° 0 mm 1 m/S 602 mmHg 55%
    01:00 +12°C° 0 mm 1 m/S 602 mmHg 56%
    02:00 +11°C° 0 mm 1 m/S 601 mmHg 58%
    03:00 +11°C° 0 mm 1 m/S 601 mmHg 60%
    04:00 +11°C° 0 mm 1 m/S 601 mmHg 59%
    05:00 +12°C° 0 mm 1 m/S 601 mmHg 58%
    06:00 +12°C° 0 mm 1 m/S 601 mmHg 56%
    07:00 +14°C° 0 mm 1 m/S 602 mmHg 53%
    08:00 +15°C° 0 mm 1 m/S 602 mmHg 49%
    09:00 +16°C° 0 mm 1 m/S 602 mmHg 45%
    10:00 +18°C° 0,1 mm 1 m/S 602 mmHg 43%
    11:00 +18°C° 0,1 mm 2 m/S 602 mmHg 41%
    12:00 +19°C° 0,1 mm 2 m/S 603 mmHg 39%
    13:00 +20°C° 0,2 mm 2 m/S 602 mmHg 37%
    14:00 +20°C° 0,2 mm 2 m/S 602 mmHg 36%
    15:00 +20°C° 0,2 mm 2 m/S 602 mmHg 35%
    16:00 +20°C° 0,2 mm 2 m/S 602 mmHg 38%
    17:00 +19°C° 0,2 mm 2 m/S 602 mmHg 40%
    18:00 +19°C° 0,2 mm 2 m/S 602 mmHg 43%
    19:00 +17°C° 0,3 mm 2 m/S 601 mmHg 48%
    20:00 +16°C° 0,3 mm 1 m/S 601 mmHg 52%
    21:00 +14°C° 0,3 mm 1 m/S 601 mmHg 57%
    22:00 +14°C° 0 mm 1 m/S 601 mmHg 58%
    23:00 +13°C° 0 mm 1 m/S 601 mmHg 58%

    26 Mai, Samstag

    Zeit Temperatur Niederschläge Wind Luftdruck Luftfeuchtigkeit
    00:00 +13°C° 0 mm 1 m/S 600 mmHg 59%
    01:00 +13°C° 0 mm 1 m/S 600 mmHg 61%
    02:00 +12°C° 0 mm 1 m/S 600 mmHg 62%
    03:00 +12°C° 0 mm 1 m/S 600 mmHg 63%
    04:00 +12°C° 0 mm 1 m/S 600 mmHg 62%
    05:00 +13°C° 0 mm 1 m/S 601 mmHg 61%
    06:00 +14°C° 0 mm 1 m/S 601 mmHg 59%
    07:00 +15°C° 0 mm 1 m/S 602 mmHg 54%
    08:00 +16°C° 0 mm 1 m/S 602 mmHg 50%
    09:00 +18°C° 0 mm 1 m/S 603 mmHg 45%
    10:00 +19°C° 0,1 mm 1 m/S 603 mmHg 42%
    11:00 +20°C° 0,1 mm 1 m/S 603 mmHg 39%
    12:00 +20°C° 0,1 mm 2 m/S 603 mmHg 37%
    13:00 +20°C° 0,1 mm 2 m/S 603 mmHg 36%
    14:00 +21°C° 0,1 mm 2 m/S 603 mmHg 35%
    15:00 +21°C° 0,1 mm 3 m/S 603 mmHg 34%
    16:00 +21°C° 0,1 mm 3 m/S 603 mmHg 37%
    17:00 +20°C° 0,1 mm 3 m/S 603 mmHg 40%
    18:00 +19°C° 0,1 mm 3 m/S 603 mmHg 43%
    19:00 +18°C° 0 mm 2 m/S 603 mmHg 47%
    20:00 +16°C° 0 mm 2 m/S 603 mmHg 51%
    21:00 +15°C° 0 mm 2 m/S 603 mmHg 55%
    22:00 +14°C° 0,1 mm 1 m/S 603 mmHg 57%
    23:00 +14°C° 0,1 mm 1 m/S 603 mmHg 58%

    27 Mai, Sonntag

    Zeit Temperatur Niederschläge Wind Luftdruck Luftfeuchtigkeit
    00:00 +13°C° 0,1 mm 1 m/S 603 mmHg 60%
    01:00 +13°C° 0 mm 1 m/S 603 mmHg 61%
    02:00 +12°C° 0 mm 1 m/S 603 mmHg 62%
    03:00 +12°C° 0 mm 1 m/S 603 mmHg 63%
    04:00 +12°C° 0 mm 1 m/S 603 mmHg 62%
    05:00 +13°C° 0 mm 1 m/S 604 mmHg 60%
    06:00 +14°C° 0 mm 1 m/S 605 mmHg 58%
    07:00 +15°C° 0 mm 1 m/S 605 mmHg 51%
    08:00 +18°C° 0 mm 1 m/S 606 mmHg 44%
    09:00 +19°C° 0 mm 1 m/S 607 mmHg 37%
    10:00 +19°C° 0 mm 2 m/S 608 mmHg 34%
    11:00 +21°C° 0 mm 2 m/S 608 mmHg 30%
    12:00 +23°C° 0 mm 2 m/S 608 mmHg 27%
    13:00 +23°C° 0 mm 2 m/S 609 mmHg 26%
    14:00 +23°C° 0 mm 2 m/S 609 mmHg 26%
    15:00 +24°C° 0 mm 2 m/S 609 mmHg 25%
    16:00 +22°C° 0 mm 3 m/S 609 mmHg 28%
    17:00 +21°C° 0 mm 3 m/S 609 mmHg 30%
    18:00 +21°C° 0 mm 3 m/S 609 mmHg 33%
    19:00 +19°C° 0 mm 2 m/S 608 mmHg 39%
    20:00 +17°C° 0 mm 2 m/S 608 mmHg 44%
    21:00 +15°C° 0 mm 2 m/S 607 mmHg 50%
    22:00 +14°C° 0 mm 2 m/S 607 mmHg 54%
    23:00 +14°C° 0 mm 1 m/S 607 mmHg 57%
    Mehr zeigen